Вернуться в каталог

YZ-1 R/B

АктивенMEO
NORAD 44866·ROCKET BODY·🇨🇳 China

Запущен Dec 16, 2019 с Xichang Satellite Launch Center

Loading…

Ближайшие Пролёты (ближайшие 24 часа)

TLE

СвежийSource: Space-Track

Эпоха: Sep 12, 2026, 18:33 UTC

1 44866U 19090C   26255.77344428 -.00000023  00000-0  00000-0 0  9992
2 44866  56.4653  66.8883 0071363  42.7055 317.8726  1.78364354 43935

Отслеживайте YZ-1 R/B в реальном времени с AllMySat

Download on the App Store